Regional Weather Roundup
Issued by NWS

Home | Current Version | Previous Version | Text Only | Print | Product List | Glossary Off
Versions: 1 2 3 4 5 6 7 8 9 10 11 12 13 14 15 16 17 18 19 20 21 22 23 24 25 26 27 28 29 30 31 32 33 34 35 36 37 38 39 40 41 42 43 44 45 46 47 48 49 50

000
ASUS45 KTFX 241219
RWRMT
MONTANA HOURLY WEATHER ROUNDUP
NATIONAL WEATHER SERVICE GREAT FALLS MT
619 AM MDT THU JUL 24 2014

NOTE: "FAIR" INDICATES FEW OR NO CLOUDS BELOW 12000 FEET WITH NO
SIGNIFICANT WEATHER AND/OR OBSTRUCTIONS TO VISIBILITY.

* THESE STATIONS ARE NOT UNDER NWS QUALITY CONTROL. THEY DO NOT
   REPORT WEATHER SUCH AS PRECIPITATION OR FOG.

MTZ001>007-043-241300-
WEST OF THE DIVIDE
CITY           SKY/WX    TMP DP  RH WIND       PRES   REMARKS
KALISPELL      LGT RAIN  57  48  72 SW10      30.00S
MISSOULA       CLOUDY    61  45  56 NW5       30.04S
BUTTE          CLEAR     48  43  83 SE6       30.07R
MULLAN PASS    CLOUDY    39  37  93 N/A       30.13R
* ESSEX        N/A       61  42  50 W1G9       N/A
* LINCOLN      N/A       55  52  90 S6G13      N/A
* LOOKOUT PASS N/A       47  40  77 E4G9       N/A
* POLSON       N/A       58  45  62 S2         N/A
* RONAN APT    MOCLDY    61  46  58 N/A        N/A
* SEELEY LAKE  N/A       59  46  62 SW1G6      N/A
* THOMP F APT  CLOUDY    61  33  35 NE2        N/A
$$

MTZ008-052>055-241300-
SOUTHWEST MONTANA
CITY           SKY/WX    TMP DP  RH WIND       PRES   REMARKS
BOZEMAN        PTCLDY    54  46  74 W5        29.94R
DILLON         CLEAR     52  39  61 SW8       29.99R
W YELLOWSTONE  PTCLDY    45  39  80 CALM      30.14S
* THREE FORKS  PTCLDY    55  55 100 N/A        N/A
* BOULDER HILL N/A       56  42  60 NW1G8      N/A
* MONIDA PASS  N/A       58  33  39 SE12       N/A
* RAYNOLDS PAS N/A       59  40  50 SE14G22    N/A
* WHITEHALL    N/A       53  47  80 N2G9       N/A
* WISE RIVER   N/A       45  42  89 SE3        N/A
$$

MTZ009>010-012-014-046-048-049-054-241300-
EAST SLOPES AND CENTRAL MONTANA
CITY           SKY/WX    TMP DP  RH WIND       PRES   REMARKS
CUT BANK       CLEAR     55  50  83 N8        29.93S
GREAT FALLS    CLEAR     57  52  83 VRB3      29.93R
HELENA         CLEAR     64  50  61 W13       29.96R
MALMSTROM AFB  CLEAR     61  54  78 W3        29.94R
* CONRAD       CLEAR     55  55 100 N/A        N/A
* DEARBORN     N/A       56  53  90 N/A        N/A
* EAST GLACIER N/A       56  46  69 W9G14      N/A
* MONARCH      N/A       52  48  86 W8         N/A
* PENDROY      N/A       56  52  87 NE6        N/A
* SAINT MARY   N/A       59  45  60 SW7G20     N/A
* SWEET GRASS  N/A       58  57  96 NW7        N/A
* WHITE SULPH  N/A       52  50  93 NE3        N/A
$$

MTZ011-013-016-021-035-040-045-047-050-051-241300-
NORTH CENTRAL MONTANA
CITY           SKY/WX    TMP DP  RH WIND       PRES   REMARKS
HAVRE          MOCLDY    66  59  78 VRB6      29.83R
LEWISTOWN      PTCLDY    55  48  77 SE6       29.91S
* FORT BENTON  CLEAR     61  55  81 SW5       29.88R
* DENTON       N/A       60  52  75 W7G19      N/A
* GEYSER       N/A       60  49  67 W14G22     N/A
* JUDITH GAP   N/A       58  47  67 VRB5       N/A
* LOMA         N/A       59  56  90 N/A        N/A
$$

MTZ017>020-022>027-061-062-241300-
NORTHEAST MONTANA
CITY           SKY/WX    TMP DP  RH WIND       PRES   REMARKS
GLASGOW        PTCLDY    64  61  90 E15       29.79F
GLENDIVE       PTCLDY    66  55  68 NE15      29.88R
JORDAN         CLEAR     66  61  84 NE16G23   29.81F
SIDNEY         CLOUDY    64  61  90 NE9       29.90R
WOLF POINT     PTCLDY    64  61  90 E12       29.82F
* BEAVER HILL  N/A       62  57  84 NE12       N/A
* CIRCLE       N/A       65  60  84 NE13       N/A
* LINDSAY DVD  N/A       64  57  78 N14G19     N/A
* NAVAJO       N/A       64  58  81 S6         N/A
$$

MTZ028>042-056>058-241300-
SOUTHCENTRAL AND SOUTHEAST MONTANA
CITY           SKY/WX    TMP DP  RH WIND       PRES   REMARKS
BAKER          PTCLDY    61  55  81 E9        29.81S
BILLINGS       PTCLDY    68  57  68 NW10      29.84R
LIVINGSTON     MOCLDY    59  45  60 VRB5      29.91F
MILES CITY     PTCLDY    66  61  84 NE15      29.75F
* LAUREL APT   CLEAR     61  55  81 SW5        N/A
* ROUNDUP APT  CLEAR     68  52  57 N6         N/A
* ALZADA       N/A       64  61  90 SE8        N/A
* HYSHAM       N/A       67  57  70 N/A        N/A
* LAME DEER    N/A       71  55  57 SW9        N/A
* REED POINT   N/A       62  51  67 SW6        N/A
* ROSCOE HILL  N/A       70  34  27 SW4        N/A
$$

REGIONAL REPORTS...DAKOTAS
CITY           SKY/WX    TMP DP  RH WIND       PRES   REMARKS
WILLISTON      CLOUDY    64  61  90 NE13      29.87F
DICKINSON      TSTM      63  57  81 SE17      29.84S
CROSBY         TSTM      63  63 100 NE5G16    29.89F
TIOGA          TSTM      61  61 100 SE12      30.00R VSB 3
WATFORD CITY   CLEAR     61  61 100 SE15G25   29.90F
BISMARCK       MOCLDY    66  57  73 SE14      29.94F
GRAND FORKS    MOCLDY    59  55  87 SE5       30.09F
FARGO          MOCLDY    64  57  78 SE9       30.08F
BUFFALO SD     CLOUDY    70  59  68 S7        29.78R
RAPID CITY     PTCLDY    66  64  93 E9        29.88F
$$

REGIONAL REPORTS...WYOMING/IDAHO/WASHINGTON
CITY           SKY/WX    TMP DP  RH WIND       PRES   REMARKS
GILLETTE       CLOUDY    77  43  30 SW16      29.90F
SHERIDAN       PTCLDY    61  54  78 E7        29.84S
YELLOWSTONE LA PTCLDY    43  37  79 CALM      30.26S
SALMON         CLEAR     54  43  67 SE3       29.97S
MULLAN PASS    CLOUDY    39  37  93 N/A       30.13S
SAND POINT     CLOUDY    54  46  74 SW6       30.08R
SPOKANE        FAIR      48  43  83 S13       30.09R
$$

REGIONAL REPORTS...ALBERTA
CITY           SKY/WX    TMP DP  RH WIND       PRES   REMARKS
CALGARY        MOCLDY    55  50  83 S7        29.79F
LETHBRIDGE     PTCLDY    55  52  90 SW7       29.90R
MEDICINE HAT   MOCLDY    61  59  93 W6        29.85S
EDMONTON       PTCLDY    57  57 100 S5        29.70S
WATERTON GATE  N/A       54  43  67 SW7        N/A
CARDSTON       N/A       59  46  62 W10        N/A
MILK RIVER     N/A       55  50  83 NW5        N/A
$$

REGIONAL REPORTS...SASKATCHEWAN
CITY           SKY/WX    TMP DP  RH WIND       PRES   REMARKS
SWIFT CURRENT  CLEAR     63  57  81 NE9       29.81R
MOOSE JAW      LGT RAIN  64  63  97 E15       29.77F
REGINA         CLOUDY    64  61  90 SE15      29.87F
VAL MARIE      N/A       55  54  96 W3         N/A
ASSINIBOIA     N/A       64  61  90 E7         N/A
CORONACH       N/A       63  57  81 S7         N/A

$$



USA.gov is the U.S. government's official web portal to all federal, state and local government web resources and services.